{"data":{"norad_id":66776,"intl_designator":"2025-276DQ","name":"LEMUR-2-LAILA","alt_names":[],"object_type":"PAYLOAD","status":"ACTIVE","operator":null,"country":"US","launch_date":"2025-11-28","launch_site_code":"AFWTR","launch_vehicle":null,"mission":null,"orbit_class":"UNKNOWN","rcs_meters":null,"size_class":null,"mass_kg":null,"dimensions":null,"purposes":["earth_obs"],"wikipedia_slug":null,"has_3d_model":false,"image_url":null,"decayed_at":null,"tle_current":{"epoch":"2026-05-25T03:09:03.758400Z","epoch_age_seconds":67272,"freshness":"FRESH","line1":"1 66776U 25276DQ  26145.13129350  .00005467  00000+0  24984-3 0  9997","line2":"2 66776  97.4178 219.3640 0000653 146.9225 213.2052 15.20972188 26947","mean_motion":15.20972188,"eccentricity":6.53e-5,"inclination_deg":97.4178,"raan_deg":219.364,"arg_perigee_deg":146.9225,"mean_anomaly_deg":213.2052,"bstar":0.00024984,"rev_number":2694,"period_min":94.67628740099,"perigee_km":502.45752922854,"apogee_km":503.35619355683,"semimajor_km":6881.0438613927,"source":"CELESTRAK","updated_at":"2026-05-25T13:38:13.574907Z"}}}